Wind_Speed
6 5 4 3 3 3 4 5 7 8 8 9 10 11 12 11 10 9 9 8 7 7 7 7 7 6 6 6 5 5 5 4 4 4 4 4 4 4 3 2 1 1 1 2 2 3 3 3 3
6 5 4 2 2 2 4 6 7 9 8 9 11 11 12 11 10 9 9 8 7 7 7 6 6 6 6 5 5 4 4 4 4 4 4 4 4 4 3 2 1 1 1 1 2 3 3 4 4
7 5 4 3 1 1 2 4 6 8 9 9 10 11 11 10 10 9 9 8 7 7 7 6 6 6 6 6 5 4 4 4 4 4 4 4 3 3 3 2 2 1 0 0 1 2 2 3 3
7 6 5 3 1 1 3 6 8 7 9 10 11 11 11 11 10 10 10 8 8 7 7 6 6 5 5 5 5 4 4 4 4 4 4 3 3 3 3 2 2 2 1 1 1 2 2 2 3
8 7 6 5 2 1 3 6 8 9 9 10 10 11 11 12 10 9 9 8 7 7 7 6 6 5 5 5 5 4 4 5 4 4 3 3 3 3 3 3 3 3 2 1 2 2 2 2 3
9 9 8 6 4 1 3 6 8 11 11 10 10 10 11 11 10 9 9 8 7 7 7 6 5 5 5 4 4 4 5 4 4 4 3 3 3 3 2 3 3 3 3 3 2 2 2 2 3
10 9 9 7 5 2 3 6 8 10 11 11 10 11 11 10 9 10 9 8 8 7 6 6 5 5 5 5 4 4 4 5 4 4 4 4 3 3 2 2 3 3 3 4 3 3 2 3 3
11 10 9 8 6 3 4 6 8 10 12 12 12 11 10 10 10 9 9 8 7 7 6 6 5 5 5 5 5 4 4 5 4 4 3 4 3 3 3 2 3 3 3 4 4 3 4 3 4
12 11 10 9 6 4 5 7 8 11 12 13 13 11 10 9 10 9 8 8 7 6 6 6 5 5 5 5 5 5 5 5 4 4 4 4 3 3 3 2 3 3 3 3 4 3 4 3 4
13 11 10 9 7 6 7 8 9 11 12 13 13 11 10 10 10 9 8 7 7 6 6 5 5 5 5 5 5 5 5 5 4 5 4 4 4 4 3 3 2 3 3 4 4 4 4 4 4
14 11 12 12 9 8 8 9 10 11 12 14 14 12 10 10 10 9 7 7 7 7 6 5 5 4 5 5 5 5 5 5 5 5 5 4 5 5 5 4 4 4 4 4 4 4 5 5 4
16 14 14 14 12 11 10 11 12 12 12 13 14 13 11 10 9 9 8 7 6 7 7 6 6 4 5 4 4 4 5 5 5 5 5 4 5 6 6 5 5 5 5 4 4 4 5 6 6
16 16 17 15 13 12 12 12 13 13 13 13 14 14 12 10 10 8 8 8 7 7 7 7 6 5 5 5 5 4 4 5 5 6 5 5 5 5 6 7 7 6 6 6 5 5 6 6 6
17 17 17 16 14 14 13 13 13 14 14 14 15 15 12 10 9 9 8 8 8 8 8 8 7 6 6 6 6 6 5 5 6 6 6 6 5 5 6 6 7 7 6 6 6 7 6 6 6
18 17 16 14 13 14 15 14 13 14 14 14 14 14 12 11 9 9 8 8 8 8 8 7 7 7 7 7 7 7 6 6 6 7 7 7 7 7 6 7 7 6 7 7 7 7 8 7 7
18 17 16 14 14 14 14 13 13 14 14 15 15 15 14 11 10 10 9 9 9 8 8 8 8 8 8 8 7 7 7 7 7 7 8 8 8 8 8 7 7 7 6 7 7 7 7 8 8
18 18 17 15 14 13 14 14 14 15 15 16 16 15 13 11 10 10 10 9 9 8 8 8 8 8 8 8 8 8 8 8 8 8 8 8 8 8 8 7 7 7 7 7 7 7 8 8 9
18 19 18 17 14 15 16 16 15 16 16 17 16 15 14 12 11 10 10 10 10 9 9 8 8 8 8 8 8 8 9 9 9 9 9 8 8 9 8 8 7 8 8 7 7 8 8 8 9
19 20 20 17 15 16 17 16 15 17 19 18 17 16 14 12 11 10 10 11 11 10 10 9 9 9 9 9 8 9 10 10 10 10 10 10 10 9 9 9 9 9 9 9 8 8 8 8 9
20 20 19 19 17 16 17 17 16 17 17 16 15 15 14 12 11 11 11 11 12 11 11 10 10 9 9 10 10 10 10 11 11 11 11 11 10 10 10 10 10 9 9 9 9 9 9 9 8
20 20 19 19 18 18 19 19 17 18 17 16 15 14 13 11 11 12 12 12 12 12 11 11 11 11 10 11 11 11 12 11 11 11 11 11 11 11 10 11 11 11 10 11 11 10 10 9 9
21 20 19 19 19 20 21 21 19 19 18 17 17 15 13 12 12 13 13 13 13 12 12 11 11 12 12 11 11 11 11 11 11 11 11 12 12 11 11 11 11 11 12 12 12 11 11 11 10
20 20 20 20 20 20 21 22 19 19 19 18 17 16 16 15 14 13 14 14 14 13 12 12 12 12 12 12 11 11 11 12 12 12 12 12 12 12 12 11 11 11 12 12 12 11 12 12 11
21 21 21 21 22 23 21 23 21 19 19 19 17 17 17 17 16 15 14 15 14 14 14 14 13 13 12 12 12 12 13 13 13 13 14 13 13 13 13 12 12 12 12 12 12 11 11 12 12
21 21 21 22 23 22 20 22 21 18 19 18 18 17 17 17 18 17 16 15 15 16 16 15 15 14 14 14 14 14 14 14 14 14 14 14 14 14 14 13 13 13 13 12 12 12 12 12 12
22 22 23 23 22 21 21 23 20 19 20 19 18 17 17 17 18 19 17 16 16 16 17 17 16 16 15 15 15 15 15 16 16 16 16 15 15 15 15 15 15 14 14 13 13 13 13 13 13
22 23 22 23 22 22 21 21 19 19 19 19 19 18 17 18 19 19 18 18 18 18 18 18 17 17 17 17 16 16 16 16 17 17 17 16 16 15 15 16 16 16 16 15 15 15 15 15 15
22 23 23 23 23 24 23 22 20 19 18 19 18 18 18 18 19 19 20 20 20 20 19 18 18 18 18 18 17 17 16 16 17 17 17 17 16 16 16 16 16 17 17 18 17 17 17 18 17
23 23 23 23 24 24 24 22 20 20 19 18 18 18 19 20 21 21 21 21 20 20 19 19 19 19 19 19 18 18 17 17 17 17 17 17 17 17 17 17 17 17 18 18 19 19 19 19 19
23 23 23 24 24 25 25 22 20 20 20 20 19 19 19 19 20 21 20 21 21 21 20 19 20 20 20 20 19 19 19 18 18 17 17 18 18 18 18 18 18 18 18 19 20 21 21 20 20
Wind_Direction
157 151 141 118 106 85 51 31 21 5 0 360 353 347 346 345 346 345 345 350 356 1 1 359 358 357 357 353 348 341 335 344 349 344 338 332 330 324 312 312 308 281 270 253 248 255 228 209 214
171 167 162 145 120 70 35 24 18 8 2 357 352 347 344 345 349 345 341 347 354 360 358 354 352 353 356 354 350 343 338 340 344 340 334 332 327 323 324 320 318 268 258 263 261 263 245 223 213
182 176 171 168 152 90 18 18 9 4 357 357 354 349 344 349 354 349 347 347 352 356 353 350 347 348 351 350 346 345 344 342 341 334 331 333 332 320 308 295 290 304 295 245 257 263 252 230 208
196 188 188 188 167 25 359 360 352 352 349 355 354 348 344 350 356 350 349 350 353 353 349 348 345 344 344 344 346 344 338 340 341 336 332 331 329 324 310 283 272 263 265 268 254 242 220 222 214
202 197 194 195 194 202 346 351 341 337 337 343 345 346 343 349 354 352 354 352 352 352 349 349 344 343 343 343 345 342 333 337 340 338 335 329 322 320 312 295 271 260 256 258 253 278 239 215 206
210 209 200 205 204 218 323 334 336 335 338 339 341 343 340 346 351 351 354 353 355 356 354 353 347 342 344 341 339 339 332 329 330 332 327 322 315 311 307 294 287 276 259 253 269 284 268 246 226
216 221 215 216 221 217 288 319 327 328 325 331 337 337 338 346 349 348 351 357 1 1 1 359 348 340 343 343 338 335 332 330 323 318 315 314 312 312 314 289 281 277 279 271 260 265 262 248 238
222 227 216 213 211 232 279 305 317 313 312 325 332 329 335 341 344 347 349 353 356 357 356 350 346 340 338 346 345 340 334 329 330 318 309 305 305 310 307 292 286 287 284 292 275 274 263 255 245
228 222 216 222 214 243 268 283 300 302 308 318 322 321 329 339 338 340 343 342 347 348 350 347 344 349 350 350 347 344 336 333 331 325 315 304 298 300 299 298 293 287 290 292 277 271 262 248 246
230 217 217 229 239 248 261 269 285 296 303 309 317 320 325 331 331 328 330 337 344 345 342 345 341 352 355 349 348 348 344 340 340 327 313 303 299 293 284 284 288 291 286 283 275 257 251 243 239
232 222 230 236 242 248 258 267 274 285 296 306 315 318 322 323 324 317 318 333 342 341 339 339 335 341 350 343 340 350 351 348 343 335 321 303 300 292 281 280 279 283 286 284 282 264 251 242 241
228 225 232 237 235 242 256 269 274 279 291 302 310 315 317 318 319 317 316 320 326 333 338 336 337 348 350 340 338 343 349 348 343 340 329 312 300 290 285 285 281 280 283 286 280 267 258 253 250
228 227 232 235 237 243 256 263 270 278 291 302 306 308 304 307 312 317 319 317 322 326 330 332 331 340 336 333 334 333 337 335 335 336 334 322 303 290 286 284 280 277 274 277 281 274 265 262 256
228 231 235 239 238 247 255 265 267 274 286 296 300 302 299 304 307 314 319 320 323 322 322 323 322 326 326 325 326 319 322 329 331 332 329 328 311 294 290 284 278 274 275 281 279 272 266 268 265
232 234 234 239 240 247 252 263 267 274 281 289 295 297 300 302 299 305 313 314 319 319 317 313 317 321 320 322 321 318 319 324 322 322 325 321 312 301 299 290 283 285 283 281 277 272 268 270 270
232 234 234 236 237 246 256 264 271 271 276 286 293 294 293 296 299 304 308 306 309 315 316 311 309 314 315 319 318 314 312 314 314 316 318 313 311 304 298 295 290 290 286 284 280 277 274 270 271
234 234 235 235 238 247 256 262 268 269 272 285 288 287 290 291 297 303 303 299 301 306 312 312 307 308 310 314 310 305 304 307 311 315 316 313 308 303 297 293 290 292 291 287 283 283 279 278 275
235 236 237 236 239 246 254 260 264 269 274 282 283 285 288 293 298 299 300 299 299 301 303 307 304 300 299 302 303 302 302 303 307 310 309 309 306 301 294 289 293 294 290 286 286 283 280 279 278
237 238 239 238 239 245 252 257 259 270 274 280 279 283 285 290 294 296 298 297 296 294 293 293 297 298 294 294 295 296 298 301 304 306 306 305 305 303 298 297 293 296 288 283 282 281 281 280 278
237 240 240 238 238 246 253 255 259 266 271 275 277 280 282 284 290 293 293 295 296 292 289 291 290 293 291 290 288 289 291 297 301 301 300 302 304 303 298 294 291 290 289 283 282 285 282 280 279
236 240 241 234 234 244 252 253 256 260 265 272 275 278 281 285 290 291 290 292 293 290 289 288 288 288 291 293 290 289 287 292 295 298 298 298 299 300 300 296 291 286 284 284 279 278 282 278 281
238 241 241 236 239 242 248 253 250 253 259 265 272 279 278 284 292 292 291 291 292 292 290 287 287 287 286 288 288 291 293 294 295 295 296 296 295 295 296 296 293 288 285 284 281 277 277 277 279
239 239 240 240 242 242 243 251 246 246 254 260 268 273 274 280 284 287 289 289 288 288 288 286 285 287 287 286 288 289 290 292 291 290 291 293 293 292 292 291 291 292 288 283 278 278 274 276 277
237 236 238 242 243 243 239 246 247 246 254 260 266 269 272 278 283 283 284 283 282 283 283 282 283 286 287 286 287 288 288 289 288 287 287 289 287 287 289 289 289 289 289 285 283 282 278 277 276
235 238 242 244 242 243 242 247 251 253 255 259 262 266 269 275 280 280 277 280 281 281 282 281 283 283 283 284 284 285 285 285 285 285 286 286 284 283 284 286 286 286 285 284 284 285 283 281 280
235 239 243 247 247 247 246 250 253 253 252 255 262 267 267 268 271 276 276 275 276 280 281 281 280 278 279 281 282 283 284 283 282 281 283 284 283 282 281 282 283 283 282 280 279 280 280 280 279
236 240 243 247 251 251 248 250 253 252 253 256 259 261 266 267 269 270 269 273 274 277 279 278 277 276 277 278 280 283 284 283 281 280 281 281 281 281 280 281 280 280 280 278 277 278 279 279 280
236 238 240 244 249 248 248 250 253 251 252 253 256 259 265 269 269 270 270 270 272 274 275 275 272 273 274 275 277 280 281 283 282 279 279 280 279 280 281 281 280 279 278 277 277 276 276 277 279
233 235 240 245 248 249 250 252 255 259 258 258 261 264 265 266 268 271 272 270 269 272 271 271 273 275 273 273 274 275 277 280 282 279 278 278 278 279 281 281 281 280 279 278 278 278 278 278 278
236 236 238 242 246 250 253 256 256 260 260 261 265 263 265 265 264 266 270 269 270 271 269 270 271 273 273 272 272 272 273 276 278 278 276 276 277 279 280 280 281 280 279 278 278 279 278 278 278
Height
5911 5911 5911 5912 5912 5911 5909 5909 5909 5909 5908 5907 5906 5905 5904 5903 5903 5903 5899 5897 5896 5894 5894 5893 5892 5891 5890 5890 5889 5889 5888 5888 5888 5887 5887 5887 5886 5885 5885 5884 5884 5883 5883 5883 5882 5882 5882 5882 5882
5911 5911 5911 5911 5911 5910 5909 5909 5909 5909 5908 5907 5906 5905 5904 5902 5902 5900 5898 5896 5895 5894 5893 5893 5892 5891 5890 5889 5889 5888 5888 5888 5888 5887 5887 5886 5886 5885 5885 5884 5884 5884 5883 5883 5882 5882 5882 5882 5882
5910 5910 5912 5911 5910 5909 5909 5908 5908 5908 5908 5907 5906 5905 5904 5903 5901 5899 5898 5896 5895 5894 5893 5892 5892 5891 5890 5889 5889 5888 5888 5888 5887 5887 5887 5886 5886 5885 5885 5884 5884 5884 5883 5883 5883 5882 5882 5881 5882
5910 5911 5911 5910 5909 5909 5908 5908 5907 5908 5907 5906 5905 5904 5903 5902 5901 5899 5897 5896 5895 5894 5893 5892 5891 5890 5890 5889 5889 5888 5888 5888 5887 5887 5886 5886 5886 5885 5885 5884 5884 5884 5883 5883 5882 5882 5882 5881 5882
5909 5910 5910 5908 5907 5907 5907 5907 5907 5906 5906 5906 5906 5904 5903 5902 5900 5898 5897 5896 5895 5894 5893 5892 5891 5890 5890 5889 5889 5888 5888 5887 5887 5886 5886 5886 5885 5885 5884 5884 5884 5883 5883 5883 5882 5881 5881 5881 5881
5909 5909 5909 5907 5907 5906 5906 5906 5906 5906 5906 5906 5905 5904 5902 5902 5900 5898 5897 5896 5894 5894 5892 5892 5891 5890 5889 5889 5888 5888 5888 5887 5887 5886 5886 5885 5885 5884 5884 5884 5883 5883 5883 5882 5882 5882 5881 5881 5881
5908 5908 5907 5907 5906 5905 5905 5905 5905 5905 5906 5905 5905 5903 5902 5901 5900 5898 5897 5896 5895 5893 5892 5891 5891 5890 5889 5888 5888 5888 5887 5887 5886 5885 5885 5885 5884 5884 5883 5883 5883 5882 5882 5882 5881 5881 5880 5880 5880
5905 5907 5906 5905 5905 5905 5904 5904 5904 5904 5904 5904 5904 5902 5901 5901 5899 5898 5896 5896 5894 5893 5892 5891 5890 5890 5889 5888 5888 5887 5887 5886 5885 5885 5884 5884 5884 5884 5883 5882 5882 5882 5882 5881 5881 5880 5880 5880 5880
5904 5906 5905 5904 5903 5903 5903 5904 5904 5903 5903 5902 5902 5901 5900 5899 5898 5897 5896 5895 5894 5893 5892 5891 5890 5889 5888 5888 5887 5887 5886 5885 5885 5884 5884 5883 5883 5883 5882 5882 5881 5881 5881 5881 5880 5880 5879 5879 5879
5901 5903 5903 5903 5902 5902 5902 5901 5902 5901 5901 5901 5901 5900 5899 5898 5897 5896 5895 5894 5893 5893 5891 5890 5889 5888 5888 5887 5887 5886 5886 5885 5884 5883 5883 5882 5882 5882 5882 5881 5881 5880 5880 5880 5879 5879 5879 5878 5878
5899 5900 5900 5900 5900 5900 5900 5900 5900 5900 5899 5899 5899 5899 5898 5897 5896 5895 5894 5894 5893 5892 5891 5890 5889 5888 5887 5887 5886 5886 5885 5885 5884 5883 5882 5882 5881 5881 5881 5881 5880 5880 5879 5879 5878 5878 5878 5878 5878
5896 5897 5897 5897 5897 5898 5898 5898 5898 5898 5898 5898 5898 5897 5896 5896 5895 5894 5893 5893 5892 5891 5890 5889 5888 5887 5887 5886 5886 5885 5884 5884 5883 5882 5882 5881 5880 5880 5880 5880 5879 5879 5878 5878 5877 5877 5877 5877 5876
5893 5894 5895 5895 5895 5895 5896 5896 5896 5896 5896 5896 5896 5896 5895 5895 5894 5893 5892 5892 5891 5891 5889 5888 5888 5887 5887 5886 5885 5884 5883 5883 5882 5882 5881 5880 5879 5879 5879 5878 5878 5877 5877 5877 5876 5876 5876 5875 5875
5890 5890 5891 5892 5893 5893 5893 5893 5893 5894 5894 5894 5894 5893 5893 5893 5892 5892 5891 5890 5889 5889 5889 5888 5886 5886 5885 5885 5884 5883 5882 5881 5881 5880 5879 5879 5878 5877 5877 5876 5876 5875 5875 5875 5875 5874 5874 5874 5874
5887 5888 5889 5890 5890 5891 5891 5891 5891 5892 5891 5891 5891 5891 5890 5890 5889 5889 5889 5888 5888 5887 5886 5886 5885 5884 5883 5883 5882 5881 5880 5880 5879 5879 5878 5877 5877 5876 5875 5875 5874 5874 5874 5873 5873 5873 5873 5872 5872
5883 5885 5886 5887 5888 5888 5889 5888 5889 5888 5889 5889 5889 5888 5888 5888 5887 5887 5887 5886 5886 5885 5884 5883 5883 5882 5881 5881 5880 5880 5879 5878 5877 5877 5876 5876 5875 5874 5874 5873 5873 5872 5872 5872 5871 5871 5870 5870 5870
5880 5881 5883 5884 5885 5885 5885 5885 5885 5885 5885 5886 5886 5885 5885 5885 5885 5885 5884 5884 5884 5883 5882 5881 5881 5880 5879 5879 5878 5878 5877 5876 5876 5875 5874 5874 5873 5872 5872 5871 5871 5870 5870 5870 5869 5869 5868 5868 5867
5876 5878 5879 5880 5881 5881 5881 5881 5882 5882 5882 5883 5882 5882 5883 5883 5883 5882 5882 5882 5881 5881 5880 5880 5879 5878 5878 5877 5877 5876 5876 5875 5874 5873 5872 5872 5871 5870 5869 5869 5868 5868 5868 5868 5867 5866 5866 5866 5865
5872 5873 5875 5876 5876 5876 5876 5877 5878 5878 5878 5878 5878 5879 5880 5881 5881 5880 5880 5879 5879 5878 5878 5877 5877 5877 5876 5875 5874 5874 5873 5873 5872 5871 5870 5870 5869 5868 5867 5867 5866 5866 5865 5865 5865 5864 5864 5863 5863
5867 5868 5870 5872 5872 5872 5872 5873 5874 5875 5874 5874 5875 5876 5876 5877 5877 5877 5877 5876 5876 5876 5875 5875 5875 5874 5873 5873 5872 5872 5871 5870 5869 5868 5868 5867 5866 5865 5865 5864 5864 5863 5863 5862 5862 5861 5861 5861 5861
5862 5864 5866 5867 5867 5867 5868 5869 5870 5871 5871 5871 5872 5873 5873 5874 5874 5874 5874 5874 5873 5873 5873 5872 5872 5871 5871 5870 5869 5869 5868 5867 5866 5866 5865 5864 5864 5863 5862 5862 5861 5861 5860 5860 5859 5859 5858 5858 5858
5858 5860 5861 5861 5862 5863 5864 5864 5867 5867 5868 5868 5869 5869 5870 5871 5871 5871 5871 5870 5870 5870 5869 5869 5869 5868 5868 5867 5867 5866 5865 5864 5864 5863 5862 5862 5861 5860 5859 5859 5858 5858 5857 5857 5856 5856 5856 5855 5855
5854 5856 5856 5857 5858 5859 5860 5859 5862 5863 5864 5865 5865 5865 5866 5868 5868 5868 5867 5867 5866 5866 5866 5865 5865 5865 5865 5864 5864 5863 5862 5861 5861 5860 5859 5859 5858 5857 5856 5855 5855 5854 5853 5853 5853 5853 5852 5852 5852
5849 5851 5851 5852 5853 5854 5856 5856 5857 5859 5860 5860 5861 5861 5862 5863 5863 5863 5863 5863 5862 5862 5862 5862 5862 5862 5861 5861 5860 5860 5859 5858 5857 5857 5856 5855 5855 5854 5853 5852 5851 5851 5850 5849 5849 5849 5849 5849 5848
5843 5845 5846 5847 5848 5849 5852 5851 5853 5855 5855 5856 5856 5857 5858 5858 5859 5858 5858 5858 5858 5859 5858 5858 5858 5858 5857 5857 5856 5856 5855 5854 5854 5853 5852 5852 5851 5850 5849 5849 5848 5847 5846 5846 5846 5845 5845 5845 5845
5838 5840 5842 5842 5843 5845 5846 5846 5849 5849 5849 5850 5852 5852 5852 5853 5853 5853 5854 5854 5854 5854 5854 5854 5853 5853 5853 5853 5852 5852 5851 5850 5849 5849 5848 5848 5847 5846 5846 5845 5844 5844 5843 5842 5842 5842 5842 5841 5841
5833 5834 5836 5838 5838 5839 5840 5841 5843 5843 5843 5844 5845 5846 5846 5846 5847 5848 5849 5849 5849 5849 5849 5849 5849 5848 5848 5848 5847 5847 5846 5845 5845 5844 5844 5843 5843 5842 5841 5841 5840 5840 5839 5838 5838 5838 5838 5837 5837
5828 5830 5831 5832 5832 5832 5834 5836 5838 5838 5838 5838 5839 5840 5840 5841 5842 5842 5843 5843 5844 5844 5844 5844 5844 5843 5843 5842 5842 5842 5841 5840 5840 5839 5839 5839 5838 5838 5837 5836 5836 5835 5834 5834 5834 5833 5833 5833 5832
5823 5824 5825 5826 5827 5827 5828 5833 5833 5832 5833 5833 5833 5834 5835 5835 5835 5836 5836 5837 5837 5838 5838 5838 5838 5838 5838 5837 5837 5836 5836 5835 5835 5834 5834 5834 5833 5833 5832 5831 5831 5830 5829 5829 5828 5828 5828 5827 5827
5816 5817 5819 5820 5821 5822 5823 5828 5827 5827 5827 5827 5828 5829 5829 5828 5829 5830 5830 5830 5831 5831 5832 5832 5832 5832 5832 5831 5831 5831 5830 5830 5829 5829 5829 5828 5828 5828 5827 5826 5825 5825 5824 5823 5823 5822 5822 5822 5821